Weather History for 78641 - August, 2013

Change the Weather History Date:

Friday, August 23, 2013

  Actual Average Record
Temperature  
Mean Temperature 68 °F -  
Max Temperature 75 °F 74 °F - ()
Min Temperature 61 °F 60 °F - ()
Cooling Degree Days 3    
Growing Degree Days 18 (Base 50)    
Moisture  
Dew Point 61 °F    
Average Humidity 80    
Maximum Humidity 94    
Minimum Humidity 60    
Precipitation  
Precipitation 0.00 in - - ()
Sea Level Pressure  
Sea Level Pressure 30.17 in    
Wind  
Wind Speed 8 mph ()    
Max Wind Speed 12 mph    
Max Gust Speed -    
Visibility 6.0 miles    
Events Rain    
T = Trace of Precipitation, MM = Missing Value Source: Averaged Metar Reports

Daily Weather History Graph

Daily Weather History Graph

Search for Another Location

Airport or City:

Trip Planner

Search our weather history database for the weather conditions in past years. The results will help you decide how hot, cold, wet, or windy it might be!

Date:

Astronomy

Aug. 23, 2013 Rise Set
Actual Time 5:49 AM CST 6:19 PM CST
Civil Twilight 5:27 AM CST 6:41 PM CST
Nautical Twilight 5:01 AM CST 7:07 PM CST
Astronomical Twilight 4:35 AM CST 7:32 PM CST
Moon 8:21 PM CST (8/23) 8:06 AM CST (8/23)
Length of Visible Light 13h 14m
Length of Day
12h 30m
Waning Gibbous, 91% of the Moon is Illuminated
Aug 23
Waning Gibbous
Aug 28
Last Quarter
Sep 5
New
Sep 12
First Quarter
Sep 19
Full

Hourly Weather History & Observations

Time (CST) Temp. Dew Point Humidity Pressure Visibility Wind Dir Wind Speed Gust Speed Precip Events Conditions
12:00 AM 62.6 °F 60.8 °F 94% 30.24 in 6.2 mi North 11.5 mph - N/A   Scattered Clouds
1:00 AM 62.6 °F 60.8 °F 94% 30.21 in 6.2 mi North 11.5 mph - N/A   Mostly Cloudy
2:00 AM 62.6 °F 60.8 °F 94% 30.18 in 6.2 mi North 11.5 mph - N/A   Mostly Cloudy
3:00 AM 62.6 °F 60.8 °F 94% 30.18 in 6.2 mi NNE 6.9 mph - N/A   Scattered Clouds
4:00 AM 62.6 °F 60.8 °F 94% 30.18 in 6.2 mi NNE 6.9 mph - N/A   Mostly Cloudy
5:00 AM 62.6 °F 60.8 °F 94% 30.18 in 6.2 mi NNE 6.9 mph - N/A   Scattered Clouds
6:00 AM 62 °F 60 °F 92% 29.90 in 25 mi NNE 6.9 mph - -   Overcast
6:00 AM 62.6 °F 60.8 °F 94% 30.15 in 6.2 mi NNE 6.9 mph - N/A   Mostly Cloudy
7:00 AM 62.6 °F 60.8 °F 94% 30.18 in 6.2 mi North 9.2 mph - N/A   Mostly Cloudy
8:00 AM 66.2 °F 60.8 °F 83% 30.21 in - NNE 9.2 mph - N/A   Clear
9:00 AM 68.0 °F 59.0 °F 73% 30.21 in 6.2 mi North 9.2 mph - N/A   Mostly Cloudy
10:00 AM 71.6 °F 57.2 °F 60% 30.21 in 6.2 mi North 9.2 mph - N/A   Overcast
11:00 AM 71.6 °F 59.0 °F 64% 30.21 in 6.2 mi North 9.2 mph - N/A   Mostly Cloudy
12:00 PM 68 °F 59 °F 64%  in 25 mi North 9.2 mph - -   Overcast
12:00 PM 73.4 °F 59.0 °F 61% 30.18 in 6.2 mi North 9.2 mph - N/A   Mostly Cloudy
1:00 PM 71.6 °F 60.8 °F 69% 30.18 in 6.2 mi NNE 9.2 mph - N/A   Mostly Cloudy
2:00 PM 73.4 °F 59.0 °F 61% 30.15 in - North - - N/A   Mostly Cloudy
3:00 PM 75.2 °F 60.8 °F 61% 30.12 in 6.2 mi NE 6.9 mph - N/A   Overcast
4:00 PM 73.4 °F 60.8 °F 65% 30.09 in 6.2 mi NNE 9.2 mph - N/A   Overcast
5:00 PM 71.6 °F 60.8 °F 69% 30.12 in 6.2 mi NNE 9.2 mph - N/A   Mostly Cloudy
6:00 PM 71.6 °F 62.6 °F 73% 30.12 in 6.2 mi North 6.9 mph - N/A   Mostly Cloudy
7:00 PM 69.8 °F 60.8 °F 73% 30.15 in 6.2 mi North 4.6 mph - N/A   Scattered Clouds
7:46 PM - - N/A% - 6.2 mi North 11.5 mph - N/A   Drizzle
8:00 PM 66.2 °F 62.6 °F 88% 30.18 in 6.2 mi North 6.9 mph - N/A   Light Drizzle
8:10 PM - - N/A% - 2.5 mi NNE 9.2 mph - N/A Rain Heavy Rain
8:30 PM - - N/A% - 5.0 mi North 6.9 mph - N/A   Light Drizzle
9:00 PM 66.2 °F 64.4 °F 94% 30.18 in 6.2 mi North 9.2 mph - N/A   Scattered Clouds
10:00 PM 66.2 °F 64.4 °F 94% 30.21 in 6.2 mi North 6.9 mph - N/A   Scattered Clouds
11:00 PM 66.2 °F 64.4 °F 94% 30.21 in 6.2 mi North 4.6 mph - N/A   Mostly Cloudy